STARLINK-1068, 44772

Orbit data source: Space-Track

STARLINK-1068, 44772 is a payload satellite owned by SpaceX/Seattle (US) in LEO that was launched on Mon, 11 Nov 2019 UTC via an FALCON 9 launch vehicle from the Air Force Eastern Test Range (AFETR). Payload-class satellites include a variety of spacecraft equipped with specific instruments for various scientific and technological missions. These include communications satellites like Starlink; space stations such as the ISS; scientific satellites like the Hubble; Earth observation satellites from companies like Planet Labs, Umbra, and HawkEye 360; GPS; miniature CubeSats for education and research; and military/defense satellites.

Loading next visibility...
Identifier
44772, 2019-074BM
Orbit
LEO
Country
Flag of USUS
Related business
Manufacturer
SpaceX/Seattle
Mission
Partially operational Commercial Communications
Bus & Motor
STARLINK, Unknown motor
Mass
260 kg wet, ~248 kg dry
Launch date (UTC)
2019-11-11 (6 years ago)
Launch vehicle
FALCON 9
Launch site
Air Force Eastern Test Range (AFETR)
Object type
Payload
Rocket body
Debris
Shape & HBR
Box + 1 Pan, 10.1 m
Radar Cross Section
13.562 m², Large (>1 m²)

Expand to show TLE details & history
Last TLE update: 5 hours ago

TLE from 5 hours ago
0 STARLINK-1068
1 44772U 19074BM  26127.20924594  .00054959  00000-0  42556-3 0  9995
2 44772  53.0441 251.5183 0001763  75.0386 285.0826 15.71339741358024
Epoch: 2026-05-07T05:01Z
TLE epoch observation values (Epoch: 2026-05-07T05:01:18.849Z)
Latitude
-0.00002°
Longitude
-48.86892°
Altitude
355.661 km
Speed
7.697 km/s
True Right ascension
16h 46m 04s
True Declination
0° 00' 00"
Sunlit
Object was in full shadow at epoch
Visualization orbit readout
Latitude
Unknown
Longitude
Unknown
Altitude
Unknown
Speed
Unknown
Apparent Right ascension
Unknown
Apparent Declination
Unknown
Sunlit
N/A
Visualization observer readout
Local Sidereal Time
17:54:05
Azimuth
Unknown
Elevation
Unknown
Doppler factor
Unknown
Orbital elements
Apogee altitude
356.534 km
Perigee altitude
354.16 km
Semi-major axis
6,733.484 km
Eccentricity
0.00018
Inclination
53.0441°
RAAN
251.5183°
Arg. of periapsis
75.0386°
True anomaly
285.06309°
Mean anomaly
285.0826°
Eccentric anomaly
285.07285°
Mean motion
3.92811 °/min
Orbital period
91.65 mins
BSTAR
0.00042556
Loading maneuver chart data...
Computing Atmospheric mass density...
Loading historical data...
Loading historical data...
Loading historical data...
Loading historical data...
Loading historical data...
Loading historical data...
Loading historical data...

Documentation

Showing up to 5 results
|